Miscellaneous Local Product
Issued by NWS Hastings, NE

Home | Current Version | Previous Version | Graphics & Text | Print | Product List | Glossary On
Versions: 1 2 3 4 5 6 7 8 9 10 11 12 13 14 15 16 17 18 19 20 21 22 23 24 25 26 27 28 29 30 31 32 33 34 35 36 37 38 39 40 41 42 43 44 45 46 47 48 49 50
000
AXUS43 KGID 301402
MISGRI

GID CWA HOURLY WEATHER ROUNDUP
NATIONAL WEATHER SERVICE HASTINGS NE
900 AM CDT SAT AUG 30 2014

NOTE: "FAIR" INDICATES FEW OR NO CLOUDS BELOW 12,000 FEET WITH NO
SIGNIFICANT WEATHER AND/OR OBSTRUCTIONS TO VISIBILITY.

...SOUTH CENTRAL NEBRASKA...

CITY           SKY/WX    TMP DP  RH WIND       PRES   REMARKS
GRAND ISLAND   SUNNY     66  60  81 N7        30.00S
HASTINGS       SUNNY     66  59  78 NE6       30.00S
KEARNEY        SUNNY     63  61  94 N6        30.01S
ORD            CLOUDY    59  58  96 CALM      30.00S
YORK           SUNNY     64 N/A N/A N5        29.99R
AURORA         SUNNY     64  64  97 N7        29.99S
LEXINGTON      SUNNY     63  60  91 NE3       30.01S
HOLDREGE       SUNNY     64  60  87 CALM      30.01S
HEBRON         SUNNY     66  60  81 CALM      29.99R

...NEBRASKA PANHANDLE...

CITY           SKY/WX    TMP DP  RH WIND       PRES   REMARKS
CHADRON        SUNNY     66  57  72 MISG      29.93F
ALLIANCE       SUNNY     60  56  86 S8        30.00F
SCOTTSBLUFF    MOSUNNY   63  56  78 SE7       30.00F
SIDNEY         SUNNY     63  57  81 S9        30.05F

...WESTERN AND NORTH CENTRAL NEBRASKA...

CITY           SKY/WX    TMP DP  RH WIND       PRES   REMARKS
VALENTINE      CLOUDY    57  57 100 SE7       30.01S FOG
AINSWORTH      FOG       57  57 100 CALM      30.01F VSB<1/4
ONEILL         MOSUNNY   60  59  95 CALM      30.00S
BROKEN BOW     SUNNY     62  58  86 CALM      30.01F
IMPERIAL       SUNNY     62  57  83 CALM      30.04R
NORTH PLATTE   SUNNY     62  58  86 E3        30.02S
MCCOOK         SUNNY     63  60  90 S3        30.02S

...EASTERN NEBRASKA...

CITY           SKY/WX    TMP DP  RH WIND       PRES   REMARKS
NORFOLK        PTSUNNY   62  58  86 NW8       29.97S
SO SIOUX CITY  CLOUDY    64  61  90 NW9       29.94R
TEKAMAH        CLOUDY    67  65  93 NW8       29.94R
COLUMBUS       PTSUNNY   64  61  88 NW7       29.98S
ALBION         CLOUDY    61  58  88 NW5       29.99S
OMAHA EPPLEY   CLOUDY    66  63  90 NW10      29.94R FOG
OFFUTT AFB     PTSUNNY   67  67 100 NW8       29.93R
MILLARD        CLOUDY    65  64  94 NW8       29.94R
LINCOLN        SUNNY     69  63  81 N5        29.96S
NEBRASKA CITY  SUNNY     68  68  99 N5        29.95R
BEATRICE       SUNNY     66  64  92 N5        29.97R
FALLS CITY     SUNNY     70  66  87 NW7       29.93R

...NORTHERN KANSAS...

CITY           SKY/WX    TMP DP  RH WIND       PRES   REMARKS
GOODLAND       SUNNY     62  58  86 W6        30.06S
HILL CITY      SUNNY     66  60  81 E6        30.01S
NORTON         SUNNY     66  57  72 E9        30.00S
PHILLIPSBURG   SUNNY     66  61  82 E6        30.00S
SMITH CENTER   SUNNY     66  61  82 NE6       30.00S
BELOIT         SUNNY     68  64  88 NE5       29.97F
HAYS           SUNNY     70  57  64 E6        30.01R
RUSSELL        MOSUNNY   70  61  73 NE5       29.99R
CONCORDIA      SUNNY     68  63  84 N5        29.98R
SALINA         SUNNY     71  64  78 N5        29.97S
TOPEKA         SUNNY     73  69  87 W5        29.94S



USA.gov is the U.S. government's official web portal to all federal, state and local government web resources and services.